Regional Weather Roundup
Issued by NWS

Home | Current Version | Previous Version | Graphics & Text | Print | Product List | Glossary On
Versions: 1 2 3 4 5 6 7 8 9 10 11 12 13 14 15 16 17 18 19 20 21 22 23 24 25 26 27 28 29 30 31 32 33 34 35 36 37 38 39 40 41 42 43 44 45 46 47 48 49 50
000
ASUS45 KCYS 290910
RWRWY

WYOMING REGIONAL WEATHER ROUNDUP
NATIONAL WEATHER SERVICE CHEYENNE WY
300 AM MDT MON SEP 29 2014

NOTE:  "FAIR" INDICATES FEW OR NO CLOUDS BELOW 12,000 FEET
WITH NO SIGNIFICANT WEATHER AND/OR OBSTRUCTIONS TO VISIBILITY.

WYZ001-291000-
YELLOWSTONE NATIONAL PARK

CITY           SKY/WX    TMP DP  RH WIND       PRES   REMARKS
LK YELLOWSTONE   N/A     36  34  92 CALM      30.14R
W YELLOWSTONE  NOT AVBL

$$
WYZ002>013-054>058-071-098>099-291000-
NORTHERN WYOMING

CITY           SKY/WX    TMP DP  RH WIND       PRES   REMARKS
JACKSON        CLOUDY    41  39  93 CALM      30.08S
CODY           CLOUDY    43  43 100 CALM      30.09F
GREYBULL       LGT RAIN  48  47  96 S5        30.09S
WORLAND        RAIN      47  46  97 E5        30.09F FOG
SHERIDAN       CLOUDY    49  46  90 E3        30.10S
BUFFALO        LGT RAIN  45  44  97 E3        30.11S FOG
GILLETTE       CLOUDY    48  46  93 E3        30.08F
HULETT         RAIN      48  46  93 E10       30.10
NEWCASTLE      DRIZZLE   50  48  93 CALM      30.09

$$
WYZ014>020-022>026-101>103-291000-
CENTRAL WYOMING

CITY           SKY/WX    TMP DP  RH WIND       PRES   REMARKS
BIG PINEY      LGT RAIN  45  39  79 CALM      30.07F
PINEDALE       CLOUDY    41  41 100 CALM      30.08F
DUBOIS         CLOUDY    41  39  93 S5        30.10F FOG
LANDER         CLOUDY    46  46 100 CALM      30.07F
RIVERTON       FOG       45  45 100 N3        30.07F VSB 1/2
CASPER         LGT RAIN  46  44  93 N7        30.07F
DOUGLAS        HVY RAIN  48  47  96 CALM      30.13R FOG

$$
WYZ021-027>030-104>119-291000-
SOUTHERN WYOMING

CITY           SKY/WX    TMP DP  RH WIND       PRES   REMARKS
EVANSTON       CLOUDY    42  40  92 SW15      30.08S
KEMMERER       RAIN      39  37  93 N7        30.08F WCI  34
FORT BRIDGER     N/A     43  41  93 CALM      30.10R
ROCK SPRINGS   PTCLDY    43  39  86 SE14      30.08S
DIXON          CLOUDY    46  42  87 CALM      30.14F
RAWLINS        MOCLDY    42  41  96 S5        30.13F
SARATOGA         N/A     39  37  93 CALM      30.14F
LARAMIE        CLOUDY    44  43  96 E8        30.15F
CHEYENNE       CLOUDY    48  46  93 NW10      30.11R
TORRINGTON     CLOUDY    53  52  96 NE6       30.03F
PINE BLUFFS    FOG       52  52 100 N7        30.07R VSB 1

$$


USA.gov is the U.S. government's official web portal to all federal, state and local government web resources and services.